DW5194 Weather Reports


Display with metric or nautical units.
time (UTC)temp
F
wind
direction
speed
MPH
gust
MPH
rain 1hr
in
rain 24hr
in
rain mn
in
humidity
%
barometer
mb
20190716015904 70 45 6.0 7.0 0.00 0.11 0.00 37 1012.9
20190716015404 70 45 6.0 7.0 0.00 0.11 0.00 37 1012.9
20190716014903 70 23 6.0 9.0 0.00 0.11 0.00 37 1012.9
20190716014404 70 22 7.0 8.0 0.00 0.11 0.00 37 1012.9
20190716013904 70 45 7.0 10.0 0.00 0.11 0.00 37 1012.9
20190716013404 70 45 8.0 8.0 0.00 0.11 0.00 37 1012.9
20190716012904 70 67 8.0 10.0 0.00 0.11 0.00 37 1012.9
20190716012404 70 68 9.0 10.0 0.00 0.11 0.00 37 1012.9
20190716011903 70 45 8.0 10.0 0.00 0.11 0.00 37 1012.9
20190716011404 70 22 8.0 12.0 0.00 0.11 0.00 37 1013.9
20190716010904 70 45 8.0 12.0 0.00 0.11 0.00 37 1013.9
20190716010403 70 45 8.0 12.0 0.00 0.11 0.00 37 1013.9
20190716005903 70 43 8.0 9.0 0.00 0.11 0.00 37 1013.9
20190716005404 70 22 8.0 10.0 0.00 0.11 0.00 36 1013.9
20190716004903 71 45 8.0 12.0 0.00 0.11 0.00 36 1013.9
20190716004404 70 45 8.0 12.0 0.00 0.11 0.00 36 1013.9
20190716002404 71 68 7.0 12.0 0.00 0.11 0.00 36 1013.9
20190716001904 71 8 7.0 12.0 0.00 0.11 0.00 36 1013.9
20190716001403 71 68 7.0 12.0 0.00 0.11 0.00 36 1013.9
20190716000904 71 42 7.0 12.0 0.00 0.11 0.00 37 1013.9
20190715235906 70 22 8.0 14.0 0.00 0.11 0.00 37 1012.9
20190715235411 70 45 8.0 14.0 0.00 0.11 0.00 38 1012.9
20190715234904 70 45 8.0 10.0 0.00 0.11 0.00 38 1012.9
20190715234404 70 45 8.0 12.0 0.00 0.11 0.00 38 1012.9
20190715233904 70 45 8.0 12.0 0.00 0.11 0.00 38 1012.9
20190715233405 70 22 8.0 12.0 0.00 0.11 0.00 38 1012.9
20190715232904 70 45 8.0 12.0 0.00 0.11 0.00 38 1012.9
20190715225904 70 45 7.0 9.0 0.00 0.11 0.00 38 1013.9
20190715224403 70 45 7.0 12.0 0.00 0.11 0.00 39 1013.9
20190715223904 70 45 6.0 9.0 0.00 0.11 0.00 39 1013.9
20190715222904 70 43 6.0 10.0 0.00 0.11 0.00 39 1012.9
20190715221904 70 45 7.0 8.0 0.00 0.11 0.00 40 1012.9
20190715221404 70 68 7.0 10.0 0.00 0.11 0.00 40 1012.9
20190715220903 69 45 7.0 10.0 0.00 0.11 0.00 41 1012.9
20190715215404 69 0 7.0 8.0 0.00 0.11 0.11 41 1012.9
20190715214904 69 45 6.0 12.0 0.00 0.11 0.11 41 1012.9
20190715214404 69 45 6.0 8.0 0.00 0.11 0.11 41 1012.9
20190715213903 69 323 6.0 8.0 0.00 0.11 0.11 41 1012.9
20190715213404 69 22 6.0 7.0 0.00 0.11 0.11 41 1012.9
20190715212904 69 45 6.0 8.0 0.00 0.11 0.11 42 1012.9
20190715212406 69 22 5.0 8.0 0.00 0.11 0.11 43 1012.9
20190715211904 69 19 6.0 9.0 0.00 0.11 0.11 42 1012.9
20190715210903 69 7 5.0 7.0 0.00 0.11 0.11 43 1012.9
20190715210404 69 22 5.0 8.0 0.00 0.11 0.11 43 1012.9
20190715205404 69 22 7.0 8.0 0.00 0.11 0.11 43 1012.9
20190715204904 69 45 6.0 8.0 0.00 0.11 0.11 43 1012.9
20190715203903 68 40 6.0 9.0 0.00 0.11 0.11 44 1012.9
20190715203404 68 45 6.0 9.0 0.00 0.11 0.11 45 1012.9
20190715202904 68 28 5.0 8.0 0.00 0.11 0.11 47 1011.9
20190715202403 67 22 5.0 8.0 0.00 0.11 0.11 48 1011.9
20190715201904 67 22 5.0 6.0 0.00 0.11 0.11 49 1011.9
20190715201404 67 180 5.0 7.0 0.00 0.11 0.11 49 1011.9
20190715200904 67 58 5.0 8.0 0.00 0.11 0.11 49 1011.9
20190715195404 67 45 6.0 7.0 0.00 0.11 0.11 48 1011.9
20190715194904 67 39 5.0 7.0 0.00 0.11 0.11 47 1011.9
20190715194404 68 68 5.0 6.0 0.00 0.11 0.11 47 1011.9
20190715193904 68 22 6.0 8.0 0.00 0.11 0.11 46 1011.9
20190715193404 68 45 6.0 9.0 0.00 0.11 0.11 45 1011.9
20190715192903 69 28 7.0 12.0 0.00 0.11 0.11 43 1011.9
20190715192404 69 45 7.0 8.0 0.00 0.11 0.11 42 1011.9
20190715191905 69 22 7.0 12.0 0.00 0.11 0.11 42 1011.9
20190715191404 69 22 7.0 12.0 0.00 0.11 0.11 43 1011.9
20190715190904 69 22 7.0 8.0 0.00 0.11 0.11 44 1011.9
20190715190404 69 22 8.0 12.0 0.00 0.11 0.11 44 1011.9
20190715185904 69 45 8.0 12.0 0.00 0.11 0.11 43 1011.9
20190715185404 69 45 7.0 9.0 0.00 0.11 0.11 43 1011.9
20190715184904 69 37 6.0 9.0 0.00 0.11 0.11 43 1011.9
20190715184403 69 22 6.0 12.0 0.00 0.11 0.11 44 1011.9
20190715183904 69 22 6.0 7.0 0.00 0.11 0.11 44 1011.9
20190715183404 69 22 5.0 9.0 0.00 0.11 0.11 45 1011.9
20190715182404 70 22 5.0 6.0 0.00 0.11 0.11 45 1011.9
20190715181904 70 22 5.0 6.0 0.00 0.11 0.11 46 1011.9
20190715181403 70 22 3.0 6.0 0.00 0.11 0.11 49 1011.9
20190715180403 70 248 1.0 2.0 0.00 0.11 0.11 61 1011.9
20190715175903 70 270 1.0 2.0 0.00 0.11 0.11 60 1010.8
20190715175404 70 270 1.0 2.0 0.00 0.11 0.11 59 1010.8
20190715174904 71 248 1.0 2.0 0.00 0.11 0.11 59 1010.8
20190715173903 71 248 1.0 2.0 0.00 0.11 0.11 59 1010.8
20190715173404 71 248 2.0 2.0 0.00 0.11 0.11 59 1010.8
20190715172904 71 202 2.0 5.0 0.00 0.11 0.11 58 1010.8
20190715171903 72 248 2.0 3.0 0.00 0.14 0.11 58 1010.8
20190715170903 72 251 2.0 3.0 0.00 0.17 0.11 59 1010.8
20190715170404 72 248 2.0 3.0 0.00 0.17 0.11 58 1010.8
20190715165403 71 248 3.0 5.0 0.00 0.17 0.11 59 1010.8
20190715164404 72 202 5.0 7.0 0.00 0.17 0.11 57 1010.8
20190715163904 72 241 5.0 7.0 0.00 0.17 0.11 55 1010.8
20190715162904 74 193 3.0 8.0 0.00 0.17 0.11 46 1010.8
20190715162404 74 225 3.0 8.0 0.00 0.17 0.11 41 1010.8
20190715161904 75 85 3.0 3.0 0.00 0.17 0.11 35 1010.8
20190715161404 75 22 5.0 6.0 0.00 0.17 0.11 35 1010.8
20190715160404 76 22 2.0 6.0 0.00 0.17 0.11 34 1010.8
20190715155903 76 139 2.0 5.0 0.00 0.19 0.11 34 1010.8
20190715154904 76 151 2.0 5.0 0.00 0.39 0.11 33 1010.8
20190715153903 76 75 3.0 7.0 0.00 0.44 0.11 33 1010.8
20190715152903 76 98 5.0 5.0 0.00 0.44 0.11 33 1010.8
20190715152404 76 112 5.0 9.0 0.00 0.44 0.11 33 1010.8
20190715150403 76 68 5.0 12.0 0.00 0.44 0.11 32 1010.8
20190715145903 76 60 6.0 12.0 0.00 0.44 0.11 32 1010.8
20190715144903 76 59 6.0 10.0 0.00 0.44 0.11 33 1010.8
20190715144404 76 112 6.0 9.0 0.00 0.44 0.11 32 1010.8
20190715143904 75 59 6.0 10.0 0.00 0.44 0.11 34 1010.8
20190715143403 75 45 5.0 12.0 0.00 0.44 0.11 34 1010.8
20190715142403 76 90 5.0 9.0 0.00 0.44 0.11 35 1010.8
20190715141903 76 94 5.0 9.0 0.00 0.44 0.11 34 1010.8
20190715140903 75 125 5.0 9.0 0.00 0.44 0.11 36 1010.8
20190715135904 75 47 5.0 8.0 0.00 0.44 0.11 37 1010.8
20190715135403 75 68 5.0 7.0 0.00 0.44 0.11 39 1010.8
20190715134904 75 112 5.0 8.0 0.00 0.44 0.11 39 1010.8
20190715134404 74 22 5.0 9.0 0.00 0.44 0.11 39 1010.8
20190715133403 74 135 7.0 10.0 0.00 0.44 0.11 42 1010.8
20190715132904 73 52 7.0 10.0 0.00 0.44 0.11 41 1011.9
20190715131403 73 112 5.0 6.0 0.00 0.44 0.11 46 1011.9
20190715130403 73 68 5.0 7.0 0.00 0.44 0.11 47 1011.9
20190715125404 73 90 3.0 6.0 0.00 0.44 0.11 47 1010.8
20190715124903 73 53 5.0 6.0 0.00 0.44 0.11 47 1010.8
20190715124403 72 68 5.0 7.0 0.00 0.44 0.11 47 1010.8
20190715123904 72 30 5.0 7.0 0.00 0.44 0.11 48 1010.8
20190715123403 72 68 6.0 6.0 0.00 0.44 0.11 47 1010.8
20190715121904 71 45 7.0 9.0 0.00 0.44 0.11 48 1010.8
20190715121403 70 25 7.0 9.0 0.00 0.44 0.11 49 1010.8
20190715120904 70 45 7.0 10.0 0.00 0.44 0.11 48 1010.8
20190715115904 70 45 6.0 10.0 0.00 0.44 0.11 48 1010.8
20190715114903 70 45 6.0 8.0 0.00 0.44 0.11 48 1010.8
20190715114403 70 43 6.0 9.0 0.00 0.44 0.11 49 1010.8
20190715113903 70 315 7.0 10.0 0.00 0.44 0.11 49 1010.8
20190715113404 70 45 7.0 12.0 0.00 0.44 0.11 48 1010.8
20190715112904 69 45 7.0 12.0 0.00 0.44 0.11 50 1010.8
20190715112404 69 68 6.0 12.0 0.00 0.44 0.11 49 1010.8
20190715110903 69 45 5.0 8.0 0.00 0.44 0.11 50 1010.8
20190715110404 69 22 7.0 8.0 0.00 0.44 0.11 51 1010.8
20190715105403 69 22 8.0 12.0 0.00 0.44 0.11 50 1010.8
20190715104903 69 45 8.0 12.0 0.00 0.44 0.11 51 1010.8
20190715104403 68 45 8.0 12.0 0.00 0.44 0.11 51 1010.8
20190715103903 69 0 8.0 12.0 0.00 0.44 0.11 50 1010.8
20190715103404 68 45 9.0 12.0 0.00 0.44 0.11 50 1010.8
20190715102903 68 45 9.0 12.0 0.00 0.44 0.11 50 1010.8
20190715101904 68 45 8.0 12.0 0.00 0.44 0.11 50 1010.8
20190715101403 68 22 8.0 12.0 0.00 0.44 0.11 52 1010.8
20190715100404 68 45 8.0 10.0 0.00 0.44 0.11 53 1010.8
20190715095904 68 44 8.0 14.0 0.00 0.44 0.11 52 1010.8
20190715095403 68 22 8.0 9.0 0.00 0.44 0.11 54 1010.8
20190715093904 67 45 7.0 12.0 0.00 0.44 0.11 57 1010.8
20190715093403 67 45 7.0 10.0 0.00 0.44 0.11 57 1010.8
20190715091904 67 44 8.0 10.0 0.00 0.44 0.11 56 1010.8
20190715091403 67 45 8.0 10.0 0.00 0.44 0.11 56 1010.8
20190715090904 66 45 8.0 9.0 0.00 0.44 0.11 57 1010.8
20190715090403 66 45 8.0 12.0 0.00 0.44 0.11 57 1010.8
20190715085904 66 45 8.0 12.0 0.00 0.44 0.11 58 1010.8
20190715085403 66 68 9.0 10.0 0.00 0.44 0.11 58 1010.8
20190715084903 65 26 9.0 12.0 0.00 0.44 0.11 59 1010.8
20190715083903 65 45 9.0 15.0 0.00 0.44 0.11 59 1010.8
20190715083403 65 44 9.0 15.0 0.00 0.44 0.11 58 1010.8
20190715081903 65 22 10.0 9.0 0.00 0.44 0.11 59 1010.8
20190715081405 65 45 10.0 12.0 0.00 0.44 0.11 59 1010.8
20190715080903 65 45 10.0 16.0 0.00 0.44 0.11 59 1010.8
20190715080404 65 20 11.0 16.0 0.00 0.44 0.11 59 1010.8
20190715075903 65 45 12.0 16.0 0.00 0.44 0.11 59 1010.2
20190715074904 65 22 10.0 15.0 0.00 0.44 0.11 61 1010.2
20190715073403 65 45 12.0 16.0 0.00 0.44 0.11 60 1010.2
20190715072403 65 45 12.0 18.0 0.00 0.44 0.11 60 1010.2
20190715071403 65 68 12.0 15.0 0.00 0.44 0.11 60 1010.2
20190715070903 65 63 12.0 17.0 0.00 0.44 0.11 61 1010.2
20190715070403 64 45 12.0 16.0 0.00 0.44 0.11 61 1010.2
20190715065903 64 45 12.0 16.0 0.00 0.44 0.11 62 1010.2
20190715065403 64 45 12.0 17.0 0.00 0.44 0.11 62 1010.2
20190715064903 64 50 10.0 17.0 0.00 0.44 0.11 62 1010.2
20190715064403 64 45 10.0 17.0 0.06 0.44 0.11 63 1010.2
20190715062903 64 45 9.0 15.0 0.11 0.44 0.11 64 1010.2
20190715062403 63 22 8.0 13.0 0.11 0.44 0.11 66 1010.2
20190715061403 64 45 8.0 10.0 0.11 0.44 0.11 65 1010.2
20190715060904 64 32 9.0 14.0 0.11 0.44 0.11 62 1010.2
20190715060404 64 45 10.0 14.0 0.11 0.44 0.11 63 1010.2
20190715055403 64 45 13.0 15.0 0.11 0.44 0.11 64 1009.1
20190715054403 64 68 10.0 16.0 0.06 0.39 0.06 60 1009.1
20190715053903 68 50 11.0 13.0 0.00 0.33 0.00 49 1009.1
20190715052403 68 45 12.0 14.0 0.00 0.33 0.00 47 1009.1
20190715051904 68 45 12.0 14.0 0.00 0.33 0.00 47 1009.1
20190715051404 68 45 11.0 18.0 0.00 0.33 0.00 47 1009.1
20190715050903 68 41 10.0 18.0 0.00 0.33 0.00 47 1009.1
20190715045903 68 41 10.0 12.0 0.00 0.33 0.00 47 1009.1
20190715045403 68 22 11.0 12.0 0.00 0.33 0.00 48 1009.1
20190715044903 68 41 12.0 17.0 0.00 0.33 0.00 47 1009.1
20190715043903 68 45 13.0 16.0 0.00 0.33 0.00 48 1009.1
20190715042403 68 45 13.0 16.0 0.00 0.33 0.00 48 1010.2
20190715041404 67 45 12.0 15.0 0.00 0.33 0.00 52 1010.2
20190715040904 67 34 10.0 14.0 0.00 0.33 0.00 53 1010.2
20190715040403 67 45 9.0 14.0 0.00 0.33 0.00 56 1010.2
20190715035903 67 62 7.0 14.0 0.00 0.33 0.00 56 1010.2
20190715035403 67 68 6.0 13.0 0.00 0.33 0.00 55 1010.2
20190715034903 67 51 6.0 8.0 0.00 0.33 0.00 54 1010.2
20190715033903 68 68 6.0 7.0 0.00 0.33 0.00 48 1010.2
20190715033403 69 45 7.0 8.0 0.00 0.33 0.00 45 1010.2
20190715032904 70 28 8.0 10.0 0.00 0.33 0.00 43 1010.2
20190715032403 70 45 8.0 12.0 0.00 0.33 0.00 45 1010.2
20190715031903 69 29 8.0 12.0 0.00 0.33 0.00 46 1010.2
20190715031404 69 45 8.0 9.0 0.00 0.33 0.00 46 1010.2
20190715030904 69 45 8.0 10.0 0.00 0.33 0.00 46 1010.2
20190715030403 69 22 8.0 13.0 0.00 0.33 0.00 46 1010.2
20190715025903 69 29 8.0 14.0 0.00 0.33 0.00 45 1010.2
20190715024903 69 52 8.0 12.0 0.00 0.33 0.00 46 1010.2
20190715024403 69 45 9.0 13.0 0.00 0.33 0.00 46 1010.2
20190715023403 69 22 8.0 10.0 0.00 0.33 0.00 47 1010.2
20190715022903 69 30 8.0 12.0 0.00 0.33 0.00 48 1010.2
20190715022403 69 22 9.0 13.0 0.00 0.33 0.00 47 1010.2
20190715021903 69 30 9.0 14.0 0.00 0.33 0.00 48 1010.2
20190715021403 69 22 9.0 13.0 0.00 0.33 0.00 48 1010.2
20190715020903 69 38 8.0 13.0 0.00 0.33 0.00 48 1010.2
20190715020404 69 22 8.0 14.0 0.00 0.33 0.00 48 1010.2